Hourly Data Report for October 07, 2016

All times are specified in Local Standard Time (LST). Add 1 hour to adjust for Daylight Saving Time where and when it is observed.

RANKIN INLET A
NUNAVUT

62°48'38.000" N
92°06'53.000" W
32.30 m
2303405
71083
YRT

Download Data

Hourly Data (October 2016)
Hourly Data Report for October 7, 2016
Temp Definition
°C
Dew Point Temp Definition
°C
Rel Hum Definition
%
Wind Dir Definition
10's deg

Wind Spd Definition
km/h
Visibility Definition
km
Stn Press Definition
kPa
Hmdx Definition


Wind Chill Definition


Weather Definition


TIME
00:00 Legend Double Dagger -1.6 -3.2 89 26 5 24.1 102.26   -3 Mostly Cloudy
01:00 Legend Double Dagger -1.2 -2.6 90 28 9 24.1 102.27   -4 LegendNANA
02:00 Legend Double Dagger -0.8 -1.9 92 29 10 24.1 102.26   -4 LegendNANA
03:00 Legend Double Dagger -0.8 -1.8 93 31 11 24.1 102.27   -5 Mostly Cloudy
04:00 Legend Double Dagger -0.7 -1.6 94 29 8 24.1 102.29   -4 LegendNANA
05:00 Legend Double Dagger -0.7 -1.3 96 33 7 24.1 102.31   -3 LegendNANA
06:00 Legend Double Dagger -0.8 -1.4 96 32 8 16.1 102.35   -4 Snow
07:00 Legend Double Dagger -0.6 -1.0 97 32 8 6.4 102.35   -3 Snow
08:00 Legend Double Dagger -0.1 -0.4 98 34 4 3.2 102.33   -1 Snow
09:00 Legend Double Dagger -0.1 -0.4 98 35 6 3.2 102.32   -2 Snow,Fog
10:00 Legend Double Dagger 0.1 -0.3 97 2 6 4.8 102.31     Snow,Fog
11:00 Legend Double Dagger 0.1 -0.2 98 4 6 4.0 102.30     Snow Showers,Fog
12:00 Legend Double Dagger 0.4 -0.9 91 9 3 8.1 102.30     Snow Showers,Fog
13:00 Legend Double Dagger 0.8 -1.0 88 4 4 12.9 102.27     Snow Showers,Fog
14:00 Legend Double Dagger 0.8 -1.6 84 1 3 16.1 102.26     LegendNANA
15:00 Legend Double Dagger 0.0 -0.7 95 33 10 12.9 102.27   -3 Snow Showers
16:00 Legend Double Dagger 0.0 -0.7 95 34 10 4.8 102.28   -3 Snow Showers,Fog
17:00 Legend Double Dagger -0.2 -0.8 96 35 14 4.8 102.26   -4 Snow Showers,Fog
18:00 Legend Double Dagger -0.2 -1.2 93 7 13 3.2 102.25   -4 Snow Showers,Fog
19:00 Legend Double Dagger -0.3 -3.0 82 5 15 4.8 102.24   -5 Snow Showers,Fog
20:00 Legend Double Dagger -0.3 -3.0 82 3 17 12.9 102.21   -5 Snow Showers
21:00 Legend Double Dagger -0.4 -2.5 86 2 18 16.1 102.18   -5 Snow Showers
22:00 Legend Double Dagger -0.6 -2.8 85 1 21 24.1 102.15   -6 LegendNANA
23:00 Legend Double Dagger -0.8 -2.9 86 36 18 24.1 102.12   -6 LegendNANA

Notes on Data Quality.

Legend

  • E = Estimated
  • M = Missing
  • NA = Not Available
  • ‡ = Partner data that is not subject to review by the National Climate Archives
Date modified: